Starlink 30819

operational
NORAD ID: 58179 Int'l Des: 2023-167 Owner: SPXS Country: US Constellation: starlink
LEOCIRCULAR

About Starlink 30819

Description loading...

Live Position

Loading 3D Globe...

Upcoming Passes

Altitude History

Altitude vs Time

uPlot chart will show altitude changes over time

Two-Line Element Set

1 58179U 23167E 25257.81111865 -.00000051 00000-0 11325-4 0 9994
2 58179 43.0041 22.0235 0001372 270.3271 89.7415 15.02533807104499
Epoch: Sep 14, 2025 • Age: 19 hours

Current Status

Altitude 565.5 km
Velocity 7.58 km/s
Sub-Earth Point -27.18°S, 26.24°E
Launch Date Oct 30, 2023
Age 1.8 years
Type internet

Technical Details

Classification Payload
Mass 730.00 kg
Dry Mass 700.00 kg
Total Mass 730.00 kg
Length 0.30 m
Diameter 4.10 m
Span 29.00 m
Shape Box + pan
Manufacturer SPXS
Bus Type Starlink V2M
Phase Status In Orbit
Owner/State SPXS/US

Large Constellations

Loading constellations...